Location: Clegg Observatory
(38.9178°N, 78.6069°W)
Time: 19:11:17
(UTC-05:00)

Daily predictions for brighter satellites

Satellite Brightness Start Highest point End
(mag) Time Altitude Azimuth Time Altitude Azimuth Time Altitude Azimuth
Cosmos 371 Rocket 3.9 17:16:20 10° NNW 17:21:05 62° WSW 17:25:49 10° S
Cosmos 304 Rocket 4.1 17:16:48 10° N 17:21:21 42° ENE 17:25:53 10° SE
CZ-2C R/B 4.4 17:18:05 10° NNE 17:22:10 33° E 17:26:17 10° SSE
Cosmos 841 Rocket 4.0 17:19:32 10° N 17:24:24 36° ENE 17:29:14 10° SE
COSMOS 2406 3.6 17:21:42 10° NNW 17:27:25 71° WSW 17:33:05 10° SSE
Cosmos 972 Rocket 3.8 17:23:18 10° NNW 17:28:14 83° ENE 17:33:11 10° SSE
USA 161 3.7 17:29:50 10° NW 17:31:08 15° WNW 17:32:29 10° WSW
Cosmos 1486 Rocket 4.1 17:28:00 10° S 17:33:03 55° ESE 17:38:11 10° NNE
CSL-04 Debris 4.1 17:30:51 10° SSE 17:36:15 76° ENE 17:41:40 10° N
IDEFIX/ARIANE 42P 4.5 17:32:07 10° SSW 17:36:51 34° W 17:41:36 10° NNW
Cosmos 1633 3.7 17:35:35 10° NNE 17:38:34 23° ENE 17:41:31 10° SE
Cosmos 1437 3.3 17:35:39 10° SSW 17:38:46 58° W 17:41:54 10° N
Meteor 1-14 Rocket 4.2 17:34:21 10° N 17:39:58 61° ENE 17:45:27 10° SSE
BREEZE-M DEB (TANK) 4.4 17:42:31 10° WNW 17:44:18 19° NNW 17:46:34 10° NE
Cosmos 1833 Rocket 3.4 17:41:13 10° N 17:46:10 31° ENE 17:51:06 10° ESE
Cosmos 972 4.3 17:42:16 10° N 17:47:14 62° ENE 17:52:02 10° SSE
Cosmos 1908 Rocket 3.6 17:43:47 10° N 17:48:03 54° E 17:52:17 10° SSE
Cosmos 2297 4.3 17:43:23 10° S 17:48:35 38° ESE 17:53:51 10° NE
Cosmos 1733 Rocket 3.9 17:44:57 10° NNW 17:49:20 56° W 17:53:40 10° S
IRS-1A Rocket 4.3 17:43:58 10° SSE 17:49:42 62° ENE 17:55:21 10° N
SKYMED 2 4.2 17:45:43 10° NNE 17:49:42 35° E 17:53:40 10° SSE
BREEZE-M DEB (TANK) 4.0 17:48:35 10° NNW 17:49:54 14° NNE 17:50:24 13° NE
Cosmos 1354 Rocket 4.5 17:45:29 10° S 17:50:22 39° ESE 17:55:16 10° NE
Cosmos 2233 Rocket 4.1 17:45:28 10° S 17:51:44 87° W 17:58:00 10° N
CENTAUR R/B 3.8 17:47:12 10° WSW 17:52:46 35° NW 17:59:04 10° NNE
Cosmos 2278 Rocket 2.4 17:47:28 10° SSW 17:53:08 79° WNW 17:58:51 10° NNE
SPOT 3 Rocket 4.2 17:49:07 10° SE 17:53:44 33° ENE 17:58:21 10° N
ALOS 3.2 17:50:24 10° SE 17:54:16 26° ENE 17:58:08 10° NNE
BREEZE-M DEB (TANK) 1.6 17:55:20 10° SW 17:57:25 85° SE 17:58:53 22° ENE
CORIOLIS 4.2 17:52:53 10° SSE 17:58:20 89° WSW 18:03:48 10° NNW
ERBS 3.4 17:57:33 10° NW 18:00:49 46° SW 18:04:06 10° SSE
COSMOS 2455 4.0 17:56:44 10° SW 18:02:24 42° NW 18:08:07 10° NNE
SMAP 3.5 17:57:51 10° S 18:02:27 65° W 18:07:05 10° NNW
Sich 1 Rocket 3.5 18:00:28 10° N 18:04:53 71° E 18:09:20 10° SSE
CZ-4 R/B 1.6 18:03:45 10° S 18:07:37 70° WSW 18:11:28 10° NNW
CZ-4 R/B 4.3 18:04:28 10° SSE 18:08:35 72° ENE 18:12:45 10° N
Meteor 1-28 Rocket 3.8 18:05:34 10° N 18:09:12 56° WNW 18:12:50 10° SSW
MOS 1 4.3 18:06:59 10° SSE 18:12:36 63° ENE 18:18:14 10° N
Cosmos 1441 Rocket 4.1 18:10:20 10° SSE 18:13:45 29° E 18:14:11 28° E
Cosmos 1606 2.5 18:10:02 10° S 18:13:48 86° E 18:17:35 10° N
NOAA 12 4.4 18:09:07 10° SE 18:14:09 44° ENE 18:19:10 10° N
Okean 1-7 3.0 18:10:03 10° S 18:14:22 66° E 18:18:45 10° NNE
Cosmos 1484 Rocket 4.4 18:12:11 10° SSW 18:15:45 36° W 18:19:24 10° NNW
BREEZE-M R/B 2.5 18:15:30 10° NW 18:18:19 67° NE 18:20:54 23° ESE
CZ-4C R/B 3.5 18:14:21 10° NNW 18:20:40 33° NE 18:24:01 24° E
Landsat 4 4.3 18:17:02 10° N 18:20:45 59° WNW 18:24:29 10° SSW
EO 1 Del DPAF 3.1 18:19:31 10° NNE 18:23:21 85° ESE 18:27:10 10° SSW
Thor Agena Rocket 4.3 18:27:31 29° E 18:27:35 29° E 18:32:02 10° SSE
Meteor 2-6 Rocket 4.0 18:25:32 10° S 18:30:56 82° E 18:36:31 10° N
Cosmos 1782 Rocket 3.6 18:28:14 10° N 18:32:36 81° W 18:36:57 10° S
CZ-3A R/B 3.8 18:18:55 10° NW 18:33:07 82° NE 18:38:16 14° SE
Cosmos 1891 Rocket 4.3 18:27:25 10° S 18:33:34 73° E 18:39:38 10° N
Cosmos 2082 Rocket 2.1 18:28:46 10° NNW 18:34:28 74° ENE 18:40:06 10° SSE
METEOR-M 4.3 18:29:51 10° S 18:35:09 73° WSW 18:40:31 10° NNW
YAOGAN 1 3.6 18:32:36 10° S 18:36:46 48° W 18:40:59 10° NNW
COSMO-SKYMED 1 2.9 18:33:31 10° N 18:37:49 64° WNW 18:42:07 10° SSW
Cosmos 1782 3.8 18:35:04 10° SSW 18:38:57 47° W 18:42:51 10° N
Cosmos 1602 3.6 18:36:26 10° N 18:40:16 64° E 18:44:04 10° SSE
ERS-2 3.4 18:41:28 10° S 18:44:57 41° W 18:48:28 10° NNW
Cosmos 405 Rocket 2.6 18:42:58 10° S 18:46:47 81° W 18:47:47 47° N
SL-27 R/B 4.3 18:44:35 10° NW 18:47:34 30° WSW 18:50:33 10° SSW
FengYun 1-2 T 4.3 18:47:44 30° SE 18:50:11 50° ENE 18:55:33 10° N
Nadezhda 4 Rocket 3.9 18:46:06 10° N 18:52:10 60° E 18:58:11 10° SSE
OAO 3 Rocket 4.1 18:49:20 10° SW 18:53:50 36° SSE 18:54:18 35° SSE
Cosmos 2034 Rocket 4.0 18:48:26 10° S 18:54:49 88° W 19:01:12 10° N
Cosmos 44 Rocket 3.2 18:50:02 10° NNW 18:54:53 64° ENE 18:55:05 64° ENE
Cosmos 540 Rocket 3.9 18:52:08 10° NNW 18:57:14 61° WSW 19:02:18 10° S
Cosmos 968 Rocket 3.3 18:52:44 10° S 18:57:51 68° ESE 18:58:24 62° ENE
USA 234 3.3 18:55:35 31° NE 18:58:57 76° NW 19:05:27 10° SW
Timation 2 Rocket 4.2 18:52:43 10° NNW 18:59:19 51° ENE 19:00:00 49° E
Meteor 1-27 Rocket 3.8 18:54:44 10° S 19:00:38 89° W 19:06:37 10° N
Celestis-02/Orion 38 4.4 19:01:31 64° E 19:01:46 65° ESE 19:06:56 10° SSW
Cosmos 292 Rocket 3.7 19:00:05 10° NNW 19:04:51 82° WSW 19:06:28 42° S
Cosmos 1092 Rocket 4.4 19:03:09 10° N 19:17:25 - SSE 19:07:23 42° NNE
Meteor 2-20 4.5 19:04:03 10° N 19:10:08 78° W 19:16:11 10° S
Okean 2 Rocket 4.3 19:10:19 10° NNW 19:14:36 43° W 19:18:51 10° SSW
FENGYUN 3A 4.4 19:10:06 10° S 19:15:22 52° W 19:20:39 10° NNW
Cosmos 44 3.6 19:18:26 10° NW 19:22:55 62° WSW 19:22:55 62° WSW
Cosmos 2369 Rocket 4.2 19:24:13 10° S 19:25:17 16° S 19:25:17 16° S
Cosmos 1833 Rocket 4.1 19:25:01 10° NW 19:30:05 36° WSW 19:35:09 10° S
ALOS 4.1 19:27:32 10° SSW 19:31:35 29° W 19:35:39 10° NW
USA 229 DEB 3.8 19:42:07 10° SSW 19:47:40 64° SSW 19:47:40 64° SSW
USA 229 3.9 19:42:14 10° SSW 19:47:43 63° SSW 19:47:43 63° SSW
CZ-4C R/B 3.2 20:02:27 10° NW 20:09:18 64° WSW 20:09:18 64° WSW
